Location: Ahstedt
(52.2048°N, 10.1060°E)
Time: 21:04:33
(UTC+00:00)

Cosmos 1328 - Pass Details

Date: 18 January 2026
Orbit: 460 x 472 km, 82.5° (Epoch: 16 February)

Event Time Altitude Azimuth Distance (km) Brightness Sun altitude
Exits shadow 05:59:24 - 340° (NNW) 1,905 6.2 -11.7°
Reaches altitude 10° 06:00:02 10° 338° (NNW) 1,650 5.9 -11.7°
Maximum altitude 06:03:28 44° 265° (W) 670 3.8 -11.2°
Drops below altitude 10° 06:06:54 10° 193° (SSW) 1,643 6.3 -10.7°
Sets 06:09:02 0° 187° (S) 2,517 7.4 -10.4°
